VE7EY Weather Reports


Display with metric or nautical units.
time (UTC)temp
F
wind
direction
speed
MPH
gust
MPH
rain 1hr
in
rain 24hr
in
rain mn
in
humidity
%
barometer
mb
20260503190240 63 274 5.0 8.0 0.00 0.00 0.00 74 1013.1
20260503190041 63 268 4.0 8.0 0.00 0.00 0.00 74 1012.9
20260503184557 62 262 4.0 8.0 0.00 0.00 0.00 75 1013.0
20260503183225 63 274 5.0 8.0 0.00 0.00 0.00 74 1013.2
20260503183053 62 285 4.0 8.0 0.00 0.00 0.00 72 1013.1
20260503181605 62 292 4.0 7.0 0.00 0.00 0.00 77 1013.2
20260503180219 61 251 5.0 7.0 0.00 0.00 0.00 78 1013.4
20260503180109 61 236 4.0 7.0 0.00 0.00 0.00 78 1013.3
20260503174512 60 264 2.0 4.0 0.00 0.00 0.00 84 1013.4
20260503173233 60 256 2.0 4.0 0.00 0.00 0.00 83 1013.6
20260503173009 59 250 2.0 4.0 0.00 0.00 0.00 83 1013.5
20260503171552 60 261 1.0 4.0 0.00 0.00 0.00 82 1013.4
20260503170226 60 248 1.0 2.0 0.00 0.00 0.00 83 1013.8
20260503150226 57 259 0.0 0.0 0.00 0.00 0.00 86 1014.1
20260503140236 55 285 0.0 0.0 0.00 0.00 0.00 88 1014.1
20260503130229 54 300 0.0 0.0 0.00 0.00 0.00 90 1013.9
20260503110231 57 300 0.0 0.0 0.00 0.00 0.00 79 1013.8
20260503110109 56 300 0.0 0.0 0.00 0.00 0.00 79 1013.5
20260503100227 57 302 2.0 3.0 0.00 0.00 0.00 78 1013.7
20260503090251 59 343 0.0 0.0 0.00 0.00 0.00 73 1013.6
20260503081508 59 275 1.0 4.0 0.00 0.00 0.00 76 1013.3
20260503080220 61 16 0.0 4.0 0.00 0.00 0.00 69 1013.4
20260503071503 60 311 0.0 0.0 0.00 0.00 0.00 70 1013.1
20260503070228 61 311 0.0 0.0 0.00 0.00 0.00 70 1013.2
20260503060228 62 37 0.0 0.0 0.00 0.00 0.00 66 1012.9
20260503060109 62 37 0.0 0.0 0.00 0.00 0.00 65 1012.8
20260503054604 62 37 0.0 0.0 0.00 0.00 0.00 67 1012.6
20260503053241 62 129 0.0 0.0 0.00 0.00 0.00 67 1012.8
20260503053044 62 129 0.0 0.0 0.00 0.00 0.00 67 1012.7
20260503051559 63 129 0.0 1.0 0.00 0.00 0.00 67 1012.7
20260503050229 64 131 0.0 0.0 0.00 0.00 0.00 60 1012.7
20260503050049 64 131 0.0 0.0 0.00 0.00 0.00 60 1012.7
20260503044601 64 146 0.0 1.0 0.00 0.00 0.00 59 1012.6
20260503043227 66 129 0.0 2.0 0.00 0.00 0.00 55 1012.7
20260503043106 66 115 0.0 4.0 0.00 0.00 0.00 55 1012.5
20260503041512 68 143 0.0 6.0 0.00 0.00 0.00 48 1012.3
20260503040242 69 357 2.0 10.0 0.00 0.00 0.00 50 1012.2
20260503040108 68 8 4.0 10.0 0.00 0.00 0.00 49 1012.0
20260503034503 69 335 2.0 14.0 0.00 0.00 0.00 48 1011.9
20260503033232 70 342 3.0 15.0 0.00 0.00 0.00 47 1011.9
20260503033107 69 34 5.0 15.0 0.00 0.00 0.00 46 1011.7
20260503031546 70 358 3.0 16.0 0.00 0.00 0.00 45 1011.7
20260503030229 71 315 4.0 10.0 0.00 0.00 0.00 45 1011.7
20260503030038 70 77 4.0 10.0 0.00 0.00 0.00 44 1011.6
20260503024508 71 354 4.0 11.0 0.00 0.00 0.00 44 1011.5
20260503023229 72 349 3.0 12.0 0.00 0.00 0.00 43 1011.7
20260503023008 72 19 4.0 12.0 0.00 0.00 0.00 43 1011.5
20260503021523 72 20 3.0 10.0 0.00 0.00 0.00 41 1011.5
20260503020232 73 307 4.0 12.0 0.00 0.00 0.00 43 1011.8
20260503020054 73 333 3.0 12.0 0.00 0.00 0.00 42 1011.7
20260503014611 73 224 2.0 13.0 0.00 0.00 0.00 42 1011.9
20260503013227 75 297 1.0 6.0 0.00 0.00 0.00 42 1012.1
20260503013002 74 308 1.0 8.0 0.00 0.00 0.00 41 1012.0
20260503011513 74 254 2.0 12.0 0.00 0.00 0.00 42 1012.1
20260503010251 75 21 1.0 11.0 0.00 0.00 0.00 43 1012.3
20260503010036 75 49 0.0 11.0 0.00 0.00 0.00 43 1012.2
20260503004512 75 290 3.0 10.0 0.00 0.00 0.00 44 1012.4
20260503003228 76 311 3.0 12.0 0.00 0.00 0.00 43 1012.5
20260503003012 75 6 2.0 10.0 0.00 0.00 0.00 43 1012.5
20260503001604 75 309 1.0 9.0 0.00 0.00 0.00 46 1012.6
20260503000301 75 290 4.0 10.0 0.00 0.00 0.00 47 1012.8
20260503000036 74 288 3.0 10.0 0.00 0.00 0.00 47 1012.8
20260502234552 73 236 6.0 11.0 0.00 0.00 0.00 49 1013.0
20260502233227 71 270 4.0 8.0 0.00 0.00 0.00 60 1013.2
20260502233053 70 251 4.0 8.0 0.00 0.00 0.00 58 1013.1
20260502231604 69 298 3.0 9.0 0.00 0.00 0.00 61 1013.4
20260502230229 68 253 5.0 10.0 0.00 0.00 0.00 66 1013.6
20260502230053 67 281 4.0 10.0 0.00 0.00 0.00 68 1013.5
20260502224501 65 250 4.0 9.0 0.00 0.00 0.00 75 1013.9
20260502223222 68 262 5.0 8.0 0.00 0.00 0.00 65 1014.1
20260502223106 68 255 5.0 8.0 0.00 0.00 0.00 68 1014.0
20260502221544 68 250 6.0 9.0 0.00 0.00 0.00 64 1014.2
20260502220224 67 274 6.0 11.0 0.00 0.00 0.00 70 1014.4
20260502220045 66 294 6.0 11.0 0.00 0.00 0.00 70 1014.3
20260502214558 65 271 7.0 12.0 0.00 0.00 0.00 75 1014.6
20260502213220 66 269 5.0 9.0 0.00 0.00 0.00 75 1014.8
20260502213100 66 276 5.0 10.0 0.00 0.00 0.00 74 1014.7
20260502211509 65 247 5.0 11.0 0.00 0.00 0.00 75 1014.9
20260502210222 65 252 8.0 12.0 0.00 0.00 0.00 74 1015.2
20260502210115 65 275 7.0 12.0 0.00 0.00 0.00 74 1015.1
20260502204505 65 257 6.0 10.0 0.00 0.00 0.00 74 1015.3
20260502203252 65 291 7.0 11.0 0.00 0.00 0.00 75 1015.4
20260502203034 64 252 6.0 12.0 0.00 0.00 0.00 75 1015.4
20260502201552 65 273 7.0 11.0 0.00 0.00 0.00 75 1015.6
20260502200232 65 266 7.0 12.0 0.00 0.00 0.00 77 1015.8
20260502200050 64 252 7.0 12.0 0.00 0.00 0.00 76 1015.7
20260502194527 63 300 7.0 12.0 0.00 0.00 0.00 78 1015.7
20260502193245 64 273 6.0 13.0 0.00 0.00 0.00 78 1015.8
20260502193008 63 328 7.0 13.0 0.00 0.00 0.00 79 1015.7
20260502191518 63 257 6.0 13.0 0.00 0.00 0.00 79 1015.7